Regional Weather Roundup
Issued by NWS Goodland, KS

Home | Current Version | Previous Version | Text Only | Print | Product List | Glossary Off
Versions: 1 2 3 4 5 6 7 8 9 10 11 12 13 14 15 16 17 18 19 20 21 22 23 24 25 26 27 28 29 30 31 32 33 34 35 36 37 38 39 40 41 42 43 44 45 46 47 48 49 50

000
ASUS43 KGLD 191508
RWRGLD

GOODLAND FORECAST AREA HOURLY WEATHER ROUNDUP
NATIONAL WEATHER SERVICE GOODLAND KS
900 AM MDT THU OCT 19 2017

...OFFICIAL OBSERVATIONS...

CITY           SKY/WX    TMP DP  RH WIND       PRES   REMARKS
GOODLAND KS    SUNNY     57  39  51 S10       30.07S
HILL CITY KS   SUNNY     54  42  64 W3        30.08R HAZE
IMPERIAL NEB   SUNNY     47  36  65 SW3       30.06S
MCCOOK NEB     SUNNY     47  39  74 CALM      30.07R
AKRON CO       SUNNY     58  32  37 SW7       30.07R
BURLINGTON CO  SUNNY     62  42  47 S8        30.09R
LIMON CO       SUNNY     51  31  46 CALM      30.12R
$$

...UNOFFICIAL OBSERVATIONS...

CITY           SKY/WX    TMP DP  RH WIND       PRES   REMARKS
LENORA KS        N/A     53  32  45 CALM        N/A
NORTON KS      SUNNY     54  39  58 CALM      30.07R
TRENTON NEB      N/A     53  32  45 CALM        N/A
YUMA CO        FAIR      48  36  61 SW6       30.07R
$$




USA.gov is the U.S. government's official web portal to all federal, state and local government web resources and services.